Morgantown, WV

2:39 PM EDT on April 20, 2018 (GMT -0400)
Morgantown Municipal-Hart

Weather History for KMGW - October, 2013

Change the Weather History Date:

Tuesday, October 29, 2013

  Actual Average Record
Temperature  
Mean Temperature 47 °F 50 °F  
Max Temperature 62 °F 61 °F 82 °F (1896)
Min Temperature 31 °F 40 °F 18 °F (1895)
Degree Days  
Heating Degree Days 18 15  
Month to date heating degree days 299 315  
Since 1 July heating degree days 387 412  
Cooling Degree Days 0 0  
Month to date cooling degree days 36 10  
Year to date cooling degree days 906 811  
Moisture  
Dew Point 35 °F    
Average Humidity 66    
Maximum Humidity 96    
Minimum Humidity 36    
Precipitation  
Precipitation 0.00 in 0.09 in 2.57 in (2012)
Month to date precipitation 1.70 2.59  
Year to date precipitation 32.89 35.27  
Sea Level Pressure  
Sea Level Pressure 30.34 in    
Wind  
Wind Speed 0 mph (NNE)    
Max Wind Speed 6 mph    
Max Gust Speed 8 mph    
Visibility 9 miles    
Events      
T = Trace of Precipitation, MM = Missing Value Source: NWS Daily Summary

Daily Weather History Graph

Daily Weather History Graph

Search for Another Location

Airport or City:

Astronomy

Oct. 29, 2013 Rise Set
Actual Time 7:45 AM EDT 6:21 PM EDT
Civil Twilight 7:17 AM EDT 6:48 PM EDT
Nautical Twilight 6:45 AM EDT 7:20 PM EDT
Astronomical Twilight 6:14 AM EDT 7:51 PM EDT
Moon 2:34 AM EDT (10/29) 3:33 PM EDT (10/29)
Length of Visible Light 11h 31m
Length of Day
10h 36m
Waning Crescent, 25% of the Moon is Illuminated
Oct 29
Waning Crescent
Nov 3
New
Nov 10
First Quarter
Nov 17
Full
Nov 25
Last Quarter

Hourly Weather History & Observations

Time (EDT) Temp. Windchill Dew Point Humidity Pressure Visibility Wind Dir Wind Speed Gust Speed Precip Events Conditions
12:53 AM 39.9 °F - 35.1 °F 83% 30.31 in 10.0 mi Calm Calm - N/A   Scattered Clouds
1:53 AM 37.9 °F - 35.1 °F 89% 30.31 in 10.0 mi Calm Calm - N/A   Partly Cloudy
2:53 AM 37.9 °F 35.5 °F 36.0 °F 93% 30.33 in 10.0 mi NE 3.5 mph - N/A   Clear
3:53 AM 37.9 °F - 35.1 °F 89% 30.33 in 10.0 mi Calm Calm - N/A   Clear
4:53 AM 36.0 °F - 34.0 °F 93% 30.34 in 10.0 mi Calm Calm - N/A   Clear
5:53 AM 35.1 °F - 33.1 °F 92% 30.35 in 7.0 mi Calm Calm - N/A   Clear
6:53 AM 34.0 °F - 32.0 °F 92% 30.37 in 7.0 mi Calm Calm - N/A   Clear
7:53 AM 32.0 °F - 30.0 °F 92% 30.38 in 3.0 mi Calm Calm - N/A   Clear
8:53 AM 36.0 °F - 34.0 °F 93% 30.39 in 8.0 mi Calm Calm - N/A   Clear
9:53 AM 42.1 °F - 36.0 °F 79% 30.40 in 10.0 mi Calm Calm - N/A   Clear
10:53 AM 46.9 °F - 37.9 °F 71% 30.40 in 10.0 mi Calm Calm - N/A   Clear
11:53 AM 53.1 °F - 37.0 °F 55% 30.39 in 10.0 mi Calm Calm - N/A   Clear
12:53 PM 57.0 °F - 37.0 °F 47% 30.37 in 10.0 mi Calm Calm - N/A   Clear
1:53 PM 60.1 °F - 35.1 °F 39% 30.35 in 10.0 mi Variable 4.6 mph - N/A   Clear
2:53 PM 60.1 °F - 35.1 °F 39% 30.32 in 10.0 mi Calm Calm - N/A   Clear
3:53 PM 60.1 °F - 34.0 °F 38% 30.31 in 10.0 mi Variable 4.6 mph - N/A   Clear
4:53 PM 59.0 °F - 35.1 °F 41% 30.30 in 10.0 mi Calm Calm - N/A   Clear
5:53 PM 55.9 °F - 35.1 °F 45% 30.32 in 10.0 mi Calm Calm - N/A   Clear
6:53 PM 54.0 °F - 35.1 °F 49% 30.32 in 10.0 mi Calm Calm - N/A   Clear
7:53 PM 50.0 °F - 37.0 °F 61% 30.32 in 10.0 mi Calm Calm - N/A   Clear
8:53 PM 50.0 °F - 37.0 °F 61% 30.32 in 10.0 mi Calm Calm - N/A   Clear
9:53 PM 50.0 °F - 36.0 °F 59% 30.32 in 10.0 mi Calm Calm - N/A   Clear
10:53 PM 48.9 °F - 37.0 °F 64% 30.31 in 10.0 mi North 3.5 mph - N/A   Clear
11:53 PM 50.0 °F - 36.0 °F 59% 30.27 in 10.0 mi Calm Calm - N/A   Clear